Location: ??
(34.9170°N, 135.5016°E)
Time: 02:54:17
(UTC+00:00)

Cosmos 2322 Rocket - Visible Passes

Search period start: 06 March 2021 00:00
Search period end: 16 March 2021 00:00
Orbit: 833 x 850 km, 71.0° (Epoch: 05 March)

Date Brightness Start Highest point End Pass type
(mag) Time Alt. Az. Time Alt. Az. Time Alt. Az.
06 Mar 4.4 09:52:50 10° WSW 09:57:25 25° WNW 10:02:02 10° N visible
06 Mar 3.4 18:57:18 32° SSE 18:57:18 32° SSE 19:00:13 10° SSE visible
07 Mar 4.4 09:37:41 10° WSW 09:42:21 27° WNW 09:47:03 10° N visible
08 Mar 4.3 09:22:30 10° WSW 09:27:16 28° WNW 09:32:04 10° N visible
